Regional Weather Roundup
Issued by NWS Charleston, WV

Home | Current Version | Previous Version | Graphics & Text | Print | Product List | Glossary On
Versions: 1 2 3 4 5 6 7 8 9 10 11 12 13 14 15 16 17 18 19 20 21 22 23 24 25 26 27 28 29 30 31 32 33 34 35 36 37 38 39 40 41 42 43 44 45 46 47 48 49 50
000
ASUS41 KRLX 232210
RWRRLX
West Virginia Regional Weather Roundup
National Weather Service Charleston WV
600 PM EDT TUE SEP 23 2014

Note: "fair" indicates few or no clouds below 12,000 feet with no
significant weather and/or obstructions to visibility.

WVZ003-232300-
Northern Panhandle of West Virginia

CITY           SKY/WX    TMP DP  RH WIND       PRES   REMARKS
WHEELING       SUNNY     68  43  40 NE3       30.33S
$$

WVZ009-232300-
Northwest West Virginia

CITY           SKY/WX    TMP DP  RH WIND       PRES   REMARKS
PARKERSBURG    SUNNY     72  42  34 NE7       30.32F
$$

WVZ006-232300-
Western West Virginia

CITY           SKY/WX    TMP DP  RH WIND       PRES   REMARKS
HUNTINGTON     SUNNY     69  43  38 NE6       30.28S
$$

WVZ015-232300-
West Central West Virginia

CITY           SKY/WX    TMP DP  RH WIND       PRES   REMARKS
CHARLESTON     MOSUNNY   69  43  38 E3        30.28S
$$

WVZ031-232300-
North Central West Virginia

CITY           SKY/WX    TMP DP  RH WIND       PRES   REMARKS
CLARKSBURG     SUNNY     67  49  52 NE7       30.31R
MORGANTOWN     SUNNY     69  45  41 N7        30.33R
$$

WVZ035-042-045-232300-
South Central West Virginia

CITY           SKY/WX    TMP DP  RH WIND       PRES   REMARKS
BECKLEY        PTSUNNY   65  48  54 SE10      30.32R
BLUEFIELD      PTSUNNY   64  51  62 VRB3      30.33R
LEWISBURG      PTSUNNY   66  46  48 CALM      30.32S
$$

WVZ047-232300-
Northern Mountains of West Virginia

CITY           SKY/WX    TMP DP  RH WIND       PRES   REMARKS
ELKINS         MOSUNNY   69  47  45 N8        30.31S
$$

WVZ052-232300-
Eastern Panhandle of West Virginia

CITY           SKY/WX    TMP DP  RH WIND       PRES   REMARKS
MARTINSBURG    PTSUNNY   67  41  38 SE3       30.33S
PETERSBURG     PTSUNNY   70  38  31 NE3       30.32F
$$



USA.gov is the U.S. government's official web portal to all federal, state and local government web resources and services.